Погода в Дубовском

Россия / Ростовская область     47°24′44″N   42°46′15″E
темп.,
°C
ветер,
м/с
пор.,
м/с
влажн.,
%
обл.,
%
осадки,
мм/ч
давл.,
гПа
погр.,
м
15 августа, пн
пн1500:00+28всв611255 0.0 1009209
03:00+25всв5122886 0.0 1010192
06:00+26в6142693 0.0 1010383
09:00+33вюв10151737 0.0 10091463
12:00+38вюв11131361 0.0 10093112
15:00+38вюв11131365 0.0 10083351
18:00+37в91114100 0.0 10073456
21:00+33в9151999 0.0 1009826
16 августа, вт
вт1600:00+30в1017240 0.0 1010734
03:00+28в81725100 0.0 1011647
06:00+27в8172074 0.0 1011627
09:00+32в91318100 0.0 1011968
12:00+36в81116100 0.0 10102015
15:00+40вюв8101282 0.0 10083732
18:00+38в6101488 0.0 1007863
21:00+35юв61417100 0.0 1008596
17 августа, ср
ср1700:00+29в3424100 0.0 100943
03:00+26в47322 0.0 1009112
06:00+25в36342 0.0 1009141
09:00+32юв443099 0.0 1009770
12:00+37ю112129 0.0 10081705
15:00+38ссз43195 0.0 10072336
18:00+36сз44225 0.0 1007764
21:00+31сз332821 0.0 100626
18 августа, чт
чт1800:00+28зсз41043100 0.1 1006174
03:00+27сз4941100 0.1 1006175
06:00+27сз3744100 0.1 1007180
09:00+31ссз4537100 0.8 1008476
12:00+35с432867 0.3 10081500
15:00+37с43255 0.4 10072086
18:00+34ссв4533100 0.7 1007326
21:00+25юв136796 1.0 100871
19 августа, пт
пт1900:00+25юв51253100 2.6 1008312
03:00+22юв61065100 5.5 1010323
06:00+23юв4956100 0.3 1009261
09:00+28юв4534100 0.3 1011932
12:00+31вюв4427100 0.0 10101407
15:00+33юв6627100 0.0 10101879
18:00+32юв61024100 0.0 10101569
21:00+28вюв71425100 0.0 1011510